Temperature
-9 -10 -11 -11 -12 -12 -12 -12 -12 -13 -13 -13 -13 -13 -13 -12 -11 -10 -9 -9 -8 -8 -8 -7 -7 -6 -5 -4 -2 -1 -1 -0 0 2 4 5 6 7 8 8 9 9 10
-10 -10 -11 -12 -12 -12 -13 -13 -13 -13 -13 -13 -13 -13 -13 -12 -12 -11 -10 -9 -8 -8 -8 -7 -7 -6 -5 -4 -3 -2 -1 -0 1 1 3 4 5 6 7 8 8 9 9
-10 -11 -11 -12 -12 -13 -13 -13 -13 -14 -14 -14 -14 -14 -13 -13 -12 -11 -10 -9 -9 -8 -8 -8 -7 -7 -6 -5 -4 -2 -2 -1 0 1 2 3 4 5 6 7 8 8 8
-10 -11 -12 -12 -13 -13 -13 -14 -14 -14 -14 -14 -14 -14 -13 -13 -12 -11 -10 -9 -8 -8 -8 -8 -7 -7 -6 -5 -4 -3 -2 -1 -0 1 2 2 3 5 5 6 7 7 8
-10 -11 -12 -12 -13 -13 -14 -14 -14 -14 -14 -14 -14 -14 -13 -13 -12 -11 -9 -9 -8 -8 -8 -8 -8 -7 -7 -6 -5 -4 -3 -2 -1 0 1 2 3 4 4 5 6 7 7
-11 -12 -12 -13 -13 -14 -14 -14 -14 -14 -14 -14 -14 -14 -13 -13 -12 -10 -9 -8 -8 -8 -8 -8 -8 -8 -8 -7 -6 -5 -4 -4 -2 -1 0 1 2 3 4 5 5 6 6
-11 -12 -12 -13 -13 -14 -14 -14 -14 -14 -14 -14 -14 -14 -13 -13 -11 -9 -9 -9 -9 -9 -9 -9 -9 -9 -8 -8 -7 -6 -5 -5 -5 -3 -2 -1 0 1 3 4 5 5 6
-11 -12 -12 -13 -13 -14 -14 -14 -14 -14 -14 -14 -14 -13 -13 -12 -11 -10 -9 -9 -9 -9 -9 -9 -9 -9 -9 -9 -8 -7 -7 -6 -6 -5 -4 -3 -2 -0 2 3 4 5 6
-11 -12 -12 -13 -13 -13 -13 -14 -14 -14 -14 -14 -14 -13 -13 -12 -11 -10 -10 -10 -10 -10 -10 -10 -10 -10 -9 -10 -9 -9 -8 -7 -6 -6 -5 -4 -2 -1 1 2 4 4 4
-11 -12 -12 -13 -13 -13 -13 -13 -14 -14 -14 -13 -13 -13 -13 -12 -12 -11 -10 -10 -10 -10 -10 -10 -10 -10 -10 -10 -10 -10 -10 -9 -7 -6 -5 -3 -2 -1 0 2 3 3 3
-11 -12 -12 -13 -13 -13 -13 -13 -13 -14 -13 -13 -13 -13 -13 -13 -12 -11 -11 -11 -11 -11 -11 -11 -11 -11 -11 -11 -11 -11 -11 -10 -8 -7 -6 -5 -4 -3 -2 -0 1 2 2
-11 -12 -12 -13 -13 -13 -13 -13 -13 -14 -14 -13 -13 -13 -13 -13 -13 -12 -12 -12 -12 -12 -12 -12 -12 -12 -11 -11 -11 -11 -11 -10 -10 -9 -8 -8 -7 -6 -5 -3 -2 -1 0
-11 -11 -12 -13 -13 -13 -13 -13 -13 -13 -13 -14 -14 -14 -13 -13 -13 -13 -13 -13 -13 -13 -13 -12 -12 -12 -12 -12 -12 -11 -11 -11 -11 -11 -11 -10 -9 -8 -7 -5 -4 -2 -1
-11 -11 -12 -12 -13 -13 -13 -13 -13 -13 -13 -14 -14 -14 -13 -13 -13 -13 -13 -13 -14 -13 -13 -13 -13 -13 -13 -13 -13 -12 -12 -13 -12 -12 -12 -11 -10 -9 -8 -7 -5 -3 -2
-10 -11 -12 -12 -13 -13 -13 -14 -13 -13 -13 -14 -14 -14 -14 -13 -13 -13 -13 -13 -13 -14 -14 -13 -13 -13 -14 -14 -14 -14 -13 -13 -12 -12 -11 -11 -11 -10 -10 -8 -7 -6 -5
-10 -11 -12 -12 -13 -13 -13 -13 -14 -14 -14 -14 -14 -14 -14 -13 -13 -13 -13 -13 -13 -14 -14 -14 -14 -15 -15 -15 -15 -15 -15 -14 -14 -13 -13 -12 -11 -11 -11 -10 -9 -8 -7
-10 -11 -11 -12 -12 -13 -13 -13 -14 -14 -14 -14 -14 -14 -14 -14 -14 -14 -14 -14 -14 -14 -14 -14 -15 -15 -15 -15 -15 -15 -15 -15 -15 -14 -14 -13 -12 -12 -11 -11 -10 -10 -9
-9 -10 -11 -11 -12 -12 -12 -13 -13 -14 -14 -14 -14 -14 -14 -14 -14 -14 -14 -14 -14 -14 -14 -14 -15 -15 -15 -15 -15 -15 -15 -15 -15 -15 -15 -14 -13 -13 -12 -12 -11 -10 -10
-9 -9 -10 -10 -11 -12 -12 -12 -13 -13 -14 -14 -14 -14 -14 -14 -14 -14 -14 -14 -14 -14 -14 -14 -14 -15 -15 -15 -15 -15 -15 -15 -15 -15 -15 -15 -14 -14 -13 -13 -12 -12 -11
-9 -9 -9 -10 -10 -11 -11 -12 -12 -12 -13 -13 -14 -14 -14 -14 -14 -14 -14 -14 -14 -14 -14 -14 -14 -15 -15 -15 -15 -15 -15 -15 -15 -15 -15 -15 -15 -14 -14 -14 -13 -13 -12
-8 -9 -9 -9 -9 -10 -11 -11 -11 -11 -12 -12 -13 -13 -14 -14 -14 -14 -14 -14 -14 -14 -14 -14 -14 -15 -15 -15 -15 -15 -15 -15 -15 -15 -15 -15 -15 -15 -14 -14 -14 -14 -13
-8 -8 -9 -9 -9 -9 -10 -10 -10 -11 -11 -11 -11 -12 -13 -13 -13 -14 -14 -14 -14 -14 -14 -15 -15 -15 -15 -15 -15 -15 -15 -15 -15 -15 -15 -15 -15 -14 -14 -14 -14 -14 -14
-8 -8 -8 -8 -9 -9 -9 -10 -10 -10 -10 -10 -10 -11 -11 -12 -12 -13 -13 -13 -14 -14 -14 -14 -14 -14 -14 -15 -14 -14 -14 -14 -14 -14 -14 -14 -14 -14 -14 -14 -14 -14 -14
-7 -7 -7 -8 -8 -8 -9 -9 -10 -10 -10 -10 -10 -10 -10 -10 -11 -11 -12 -12 -13 -13 -13 -14 -14 -14 -14 -14 -14 -14 -14 -14 -14 -14 -14 -14 -14 -14 -14 -14 -14 -14 -14
-7 -7 -7 -7 -8 -8 -9 -9 -10 -10 -10 -10 -10 -10 -10 -10 -10 -10 -10 -11 -11 -12 -13 -13 -13 -13 -14 -14 -14 -14 -14 -13 -13 -13 -13 -13 -14 -14 -14 -14 -14 -14 -14
-6 -6 -6 -7 -7 -8 -8 -9 -9 -10 -11 -11 -11 -11 -11 -11 -10 -10 -10 -10 -10 -10 -11 -12 -12 -13 -13 -13 -13 -13 -13 -13 -13 -13 -13 -13 -13 -13 -14 -14 -14 -14 -14
Wind_Speed
10 10 11 11 10 11 9 11 12 14 16 14 15 15 17 17 16 17 17 19 17 13 12 14 15 15 12 12 10 10 11 12 14 11 8 7 6 4 3 3 6 6 8
10 10 11 11 10 12 12 12 16 14 15 16 16 16 18 18 18 17 18 20 17 14 13 15 16 14 15 12 11 9 8 8 10 11 8 6 7 5 4 4 4 4 5
11 11 11 11 12 12 13 13 16 14 12 15 14 16 17 18 18 17 17 19 16 12 12 14 15 15 14 13 12 10 8 7 6 7 7 6 5 4 4 3 4 3 4
11 11 11 11 11 13 13 13 15 14 12 12 12 15 16 17 17 16 17 17 14 11 11 12 13 14 14 15 11 11 9 7 6 6 6 5 5 4 4 4 3 3 3
11 11 10 10 11 12 14 14 13 13 14 11 13 15 16 15 15 18 17 14 10 9 9 11 13 17 20 17 13 13 12 7 5 4 4 4 4 3 4 4 5 4 3
11 10 10 10 11 12 14 14 15 14 13 12 14 15 16 17 26 29 21 10 7 7 9 11 13 15 19 22 24 23 22 15 10 7 4 3 2 3 3 4 6 6 5
10 10 10 10 12 13 15 14 13 12 12 13 14 15 15 19 29 29 24 11 8 8 10 10 13 16 18 14 19 23 23 26 23 13 10 8 6 5 4 4 7 8 5
10 10 11 11 12 12 12 12 11 9 10 10 12 14 15 20 30 28 23 13 9 10 10 11 12 14 18 18 15 16 16 18 20 15 13 13 13 10 5 4 4 6 7
12 12 12 12 11 12 11 11 10 9 9 9 10 13 14 18 29 28 23 10 10 11 13 14 14 14 25 25 18 16 16 16 21 25 24 23 25 26 18 4 4 11 11
13 13 13 12 11 11 11 10 9 9 10 11 12 12 13 14 26 29 24 11 12 11 12 14 22 23 26 26 17 16 17 16 16 18 20 22 20 22 26 15 6 5 11
13 13 12 11 11 11 10 9 9 10 10 11 12 11 11 16 22 28 26 13 12 11 11 11 13 26 27 27 23 17 20 16 13 14 14 15 16 16 17 17 14 7 5
13 13 12 12 12 12 10 8 8 9 9 9 9 10 9 12 19 22 26 22 17 11 10 8 12 24 25 26 21 24 26 20 12 13 13 15 15 15 14 15 16 15 13
13 12 12 13 10 9 9 8 8 7 7 9 9 10 10 9 12 23 24 23 22 11 10 18 20 22 21 18 24 27 21 14 13 14 14 14 13 14 13 13 13 14 18
13 11 11 11 10 9 10 9 7 7 7 8 9 9 9 8 7 7 9 11 15 12 10 15 20 21 18 19 19 16 14 14 13 12 12 12 12 13 14 13 13 11 13
12 10 11 12 10 9 10 10 11 7 9 7 5 6 8 6 11 18 12 9 8 10 9 8 9 10 12 12 12 12 12 12 13 12 12 12 12 13 13 13 12 12 13
11 10 9 9 9 9 8 9 17 17 18 16 14 11 9 13 15 17 18 18 19 19 12 8 10 10 11 11 11 11 10 11 11 11 11 11 11 10 11 11 11 12 12
10 9 8 10 9 9 9 9 9 13 17 17 16 15 13 13 14 15 15 16 16 16 7 5 6 6 7 7 7 7 7 8 7 8 8 8 9 9 9 10 10 10 10
9 11 11 7 7 7 7 7 7 9 8 7 11 16 16 14 12 12 12 11 8 7 4 4 4 5 5 5 5 5 5 5 5 6 6 6 7 8 8 8 9 10 10
9 7 7 6 6 6 6 6 6 7 7 6 5 8 15 15 14 12 10 4 4 4 4 4 4 4 4 4 4 4 5 5 5 5 5 6 6 6 6 7 8 12 10
7 14 13 8 7 7 7 6 6 6 6 6 6 6 6 6 6 7 6 5 4 4 4 4 4 4 4 3 4 4 4 4 4 4 4 4 4 4 5 6 6 6 6
6 9 15 10 7 7 7 6 6 6 7 7 6 9 13 5 5 6 6 5 4 4 4 4 4 5 4 3 3 4 4 4 3 3 3 3 3 3 3 4 4 4 4
6 6 7 7 7 8 9 8 7 7 8 9 8 10 15 7 6 6 6 6 5 4 5 4 4 4 3 3 2 2 3 3 3 2 2 2 2 2 2 2 3 3 3
6 7 7 7 7 12 12 9 9 9 9 9 9 9 9 8 7 8 8 7 5 6 9 8 5 5 8 7 6 5 4 4 3 1 1 2 2 2 1 1 0 0 1
6 7 8 8 8 9 10 11 11 12 11 11 10 9 9 9 9 10 9 8 7 9 10 10 10 9 10 10 10 9 9 9 8 6 5 4 4 3 2 2 2 3 2
6 7 7 7 9 10 11 11 12 13 13 13 13 12 11 10 10 10 10 9 10 9 11 13 12 12 13 13 12 11 12 12 11 10 9 7 5 5 4 4 3 3 3
6 6 7 7 9 10 10 11 12 13 13 13 13 13 13 12 11 10 10 10 10 10 11 13 14 16 17 16 16 16 16 15 14 13 10 8 5 5 5 4 5 4 4
Wind_Direction
334 331 327 326 328 331 329 328 327 325 328 332 333 332 332 330 330 328 326 327 324 322 327 324 321 318 312 308 285 258 244 239 247 258 267 281 294 279 246 214 211 206 209
332 330 328 329 330 331 329 329 328 324 328 332 332 332 331 329 326 325 325 326 322 321 326 326 324 324 320 314 309 296 275 256 247 252 257 263 263 261 239 226 218 204 197
333 330 328 329 330 329 329 328 324 322 325 329 331 331 328 325 321 319 320 319 318 315 321 326 326 326 328 324 318 313 299 284 265 255 253 251 253 251 243 235 213 194 180
331 325 324 326 327 326 326 323 320 321 323 324 327 326 321 319 315 311 316 316 314 313 320 330 331 333 337 336 337 336 325 309 286 265 252 245 243 244 218 209 202 178 167
321 318 318 321 322 323 323 321 322 325 325 320 323 320 317 318 316 316 316 316 315 322 336 342 342 351 358 360 3 2 358 350 332 298 267 241 229 223 216 193 188 161 142
316 316 319 324 325 325 325 328 329 326 323 324 322 319 319 325 323 328 335 329 336 351 357 355 356 359 11 9 13 17 19 19 14 4 344 315 285 258 244 206 177 168 164
319 322 326 325 325 327 331 330 326 325 326 325 322 321 321 323 333 340 354 9 13 14 15 13 14 9 21 14 12 17 18 22 27 23 16 9 354 339 314 245 198 173 149
330 334 332 328 324 326 327 326 324 324 323 320 321 326 329 333 341 354 15 17 22 24 23 22 23 14 25 25 15 18 17 16 19 23 21 14 8 359 323 275 210 139 114
340 339 333 327 326 328 330 328 328 325 323 322 327 331 336 340 350 6 23 12 23 27 25 26 29 24 28 30 21 18 19 15 14 20 23 24 21 22 18 6 175 159 146
340 336 329 328 330 331 332 331 330 331 332 334 337 339 342 347 359 13 28 25 30 33 27 19 26 31 29 33 26 21 24 16 11 12 17 19 20 21 24 24 3 166 144
335 331 331 333 332 333 333 330 332 338 338 339 341 346 349 360 4 14 30 37 36 34 29 19 20 28 30 32 33 28 28 24 16 17 18 18 19 21 22 22 22 29 105
334 334 335 335 337 344 335 333 336 342 346 347 350 354 357 0 8 14 21 30 38 26 20 16 23 29 29 30 33 30 29 27 22 24 25 22 19 16 15 21 29 37 45
336 337 338 337 338 340 341 340 341 346 352 358 359 359 360 3 8 22 21 22 25 27 18 24 27 30 29 27 29 30 28 26 24 27 27 22 17 14 15 19 24 37 44
336 339 342 341 342 344 350 350 347 347 354 5 1 355 353 355 356 12 12 16 20 25 21 22 25 27 30 27 29 28 25 27 28 25 23 21 19 21 24 23 28 31 48
335 341 344 344 340 345 352 353 356 353 6 11 350 345 353 354 15 23 22 16 19 33 26 18 19 20 22 22 24 26 25 24 26 23 23 25 27 30 30 29 34 41 51
340 345 344 343 345 348 347 351 1 5 9 12 9 8 360 5 14 17 15 18 27 31 30 22 23 22 20 18 18 19 22 25 24 25 25 24 27 31 34 35 40 45 49
334 339 343 344 342 347 352 353 351 356 5 7 5 4 2 357 360 3 6 13 18 24 23 11 12 13 13 11 10 9 14 17 16 22 23 20 24 31 39 41 42 48 52
332 340 344 331 333 338 344 347 347 347 346 347 354 356 356 352 349 350 358 7 1 9 2 2 1 0 3 4 3 2 360 8 10 14 19 18 23 30 36 40 45 50 54
332 329 330 327 328 331 334 336 336 335 334 330 326 341 350 350 349 348 355 354 333 339 344 347 346 350 352 354 355 356 355 358 6 10 19 20 20 29 34 34 42 55 58
330 338 345 337 328 327 326 326 325 324 322 320 319 314 319 335 334 334 334 321 320 322 327 329 329 331 337 343 344 347 349 351 4 16 14 18 20 28 33 36 39 45 49
321 326 338 335 324 323 322 320 316 315 315 316 310 315 329 326 309 306 308 308 306 305 303 302 305 311 316 326 338 342 341 339 349 360 5 14 20 24 27 33 34 41 47
318 316 320 320 325 328 332 325 317 311 310 311 309 313 322 315 291 287 288 288 282 276 279 274 276 274 273 271 278 300 315 321 330 346 351 350 354 359 12 27 33 36 44
322 322 324 325 327 337 340 331 327 321 314 308 304 305 304 299 294 292 287 282 269 269 274 273 266 267 273 270 262 249 249 262 269 258 300 315 314 303 291 264 227 71 33
327 326 328 330 335 338 337 337 335 333 330 325 317 307 298 290 286 284 282 278 273 270 266 263 262 261 264 265 261 256 253 256 256 250 245 246 257 266 265 251 237 225 221
328 330 333 335 340 341 339 338 337 337 338 339 338 331 321 307 295 286 278 272 269 267 264 260 258 257 259 258 254 253 257 261 259 252 242 230 231 231 231 237 235 228 219
330 337 339 339 342 342 340 338 337 336 338 341 342 340 337 332 322 309 295 280 269 262 259 256 251 248 248 249 251 255 257 256 256 256 244 221 212 218 214 218 221 223 221
Height
1542 1536 1530 1524 1519 1513 1507 1501 1495 1489 1484 1478 1472 1465 1460 1454 1449 1445 1440 1436 1432 1428 1424 1419 1414 1410 1406 1402 1399 1398 1398 1400 1400 1399 1401 1404 1406 1409 1413 1416 1420 1424 1427
1540 1534 1528 1522 1516 1510 1503 1498 1492 1487 1482 1476 1469 1463 1457 1451 1446 1442 1437 1433 1429 1425 1421 1416 1411 1406 1401 1397 1393 1390 1390 1391 1393 1394 1395 1398 1400 1404 1407 1411 1414 1418 1421
1538 1532 1525 1519 1513 1507 1500 1494 1489 1484 1479 1473 1467 1460 1454 1448 1443 1439 1435 1430 1427 1423 1419 1414 1408 1403 1398 1393 1388 1385 1383 1383 1385 1387 1388 1391 1394 1398 1402 1405 1409 1412 1415
1536 1530 1523 1517 1511 1504 1498 1492 1487 1482 1476 1471 1465 1458 1452 1446 1441 1437 1432 1428 1425 1421 1417 1412 1407 1402 1397 1391 1386 1382 1378 1377 1378 1380 1382 1385 1388 1392 1396 1399 1403 1407 1410
1534 1528 1522 1516 1509 1502 1496 1490 1485 1480 1475 1469 1463 1456 1450 1445 1439 1435 1430 1425 1422 1419 1415 1411 1406 1402 1396 1391 1386 1380 1376 1374 1373 1375 1377 1380 1383 1386 1390 1394 1398 1402 1406
1532 1527 1521 1514 1507 1501 1494 1489 1483 1478 1472 1467 1461 1455 1449 1443 1438 1432 1427 1423 1421 1418 1414 1410 1406 1401 1396 1390 1385 1380 1377 1373 1371 1371 1372 1374 1377 1381 1385 1389 1393 1397 1401
1531 1525 1519 1512 1506 1500 1494 1488 1482 1477 1471 1465 1460 1454 1448 1442 1436 1430 1424 1421 1420 1418 1415 1411 1407 1403 1397 1391 1386 1381 1376 1373 1372 1370 1369 1370 1373 1376 1379 1383 1387 1391 1395
1530 1524 1517 1511 1505 1499 1494 1488 1482 1477 1471 1465 1460 1454 1449 1442 1435 1429 1424 1422 1421 1419 1416 1413 1410 1405 1400 1394 1388 1383 1378 1374 1372 1369 1368 1368 1369 1370 1373 1377 1381 1386 1391
1529 1522 1516 1510 1505 1499 1493 1488 1483 1477 1471 1466 1461 1456 1450 1444 1438 1432 1427 1425 1423 1420 1418 1416 1413 1409 1404 1397 1391 1386 1382 1378 1375 1372 1369 1367 1366 1366 1368 1373 1377 1380 1384
1528 1522 1516 1511 1506 1500 1495 1489 1484 1478 1473 1468 1463 1458 1454 1448 1442 1437 1431 1428 1425 1423 1421 1418 1416 1413 1408 1402 1396 1392 1387 1383 1379 1375 1371 1368 1366 1366 1367 1368 1372 1375 1377
1529 1523 1517 1512 1506 1501 1496 1490 1485 1479 1474 1469 1465 1461 1457 1452 1447 1442 1437 1433 1430 1428 1425 1423 1420 1417 1412 1407 1403 1398 1395 1390 1385 1380 1375 1371 1368 1366 1366 1367 1369 1372 1375
1529 1523 1517 1512 1507 1502 1496 1491 1486 1480 1475 1471 1467 1463 1459 1455 1451 1447 1443 1439 1436 1433 1431 1428 1425 1421 1416 1412 1408 1404 1400 1395 1391 1386 1381 1378 1374 1372 1370 1370 1370 1372 1375
1529 1523 1518 1512 1508 1502 1497 1491 1487 1482 1477 1473 1469 1465 1462 1459 1455 1451 1447 1443 1440 1437 1435 1433 1429 1425 1420 1416 1412 1408 1404 1400 1396 1392 1389 1387 1384 1382 1379 1376 1375 1376 1378
1529 1524 1518 1513 1508 1503 1498 1493 1488 1483 1479 1475 1471 1468 1465 1462 1459 1455 1451 1447 1444 1441 1438 1435 1431 1428 1424 1420 1416 1412 1409 1407 1404 1401 1399 1396 1393 1390 1386 1384 1383 1382 1383
1530 1525 1520 1515 1510 1504 1499 1495 1490 1486 1482 1478 1474 1471 1468 1465 1463 1460 1456 1452 1449 1445 1441 1437 1434 1430 1427 1424 1421 1418 1415 1412 1410 1408 1406 1403 1401 1398 1396 1394 1392 1391 1391
1531 1526 1521 1516 1511 1506 1501 1496 1492 1488 1484 1480 1476 1473 1470 1468 1465 1462 1459 1456 1453 1450 1445 1441 1438 1435 1432 1429 1426 1423 1421 1418 1416 1414 1412 1410 1408 1407 1405 1404 1403 1401 1401
1533 1528 1523 1518 1513 1508 1503 1497 1492 1488 1484 1480 1477 1474 1471 1468 1466 1463 1461 1458 1456 1452 1448 1445 1443 1440 1437 1434 1431 1428 1426 1423 1421 1419 1417 1415 1414 1413 1412 1412 1412 1411 1412
1535 1530 1525 1520 1515 1510 1505 1500 1494 1489 1484 1480 1477 1474 1471 1468 1466 1464 1462 1459 1456 1453 1451 1448 1446 1443 1440 1437 1434 1432 1429 1427 1425 1423 1421 1419 1418 1417 1417 1417 1417 1417 1418
1536 1531 1527 1522 1517 1512 1507 1502 1497 1491 1486 1482 1478 1474 1471 1468 1465 1463 1461 1459 1456 1454 1452 1450 1447 1445 1442 1439 1437 1434 1432 1430 1428 1426 1424 1423 1422 1421 1421 1421 1421 1422 1422
1537 1533 1528 1523 1518 1513 1508 1503 1498 1493 1487 1483 1478 1474 1470 1467 1464 1461 1459 1457 1455 1453 1451 1449 1447 1445 1443 1440 1438 1436 1434 1432 1430 1429 1427 1426 1425 1425 1424 1424 1424 1425 1425
1538 1534 1529 1524 1519 1514 1509 1504 1499 1494 1489 1483 1479 1474 1471 1467 1463 1460 1457 1455 1453 1451 1449 1448 1446 1444 1442 1440 1438 1436 1435 1433 1432 1431 1430 1429 1428 1428 1427 1427 1427 1428 1428
1538 1534 1529 1524 1520 1515 1510 1505 1500 1495 1490 1484 1479 1474 1470 1465 1461 1458 1455 1452 1450 1448 1446 1445 1443 1442 1440 1439 1438 1436 1435 1434 1433 1432 1431 1431 1430 1430 1430 1430 1430 1430 1431
1538 1534 1529 1525 1520 1515 1511 1506 1500 1495 1490 1485 1479 1473 1468 1463 1459 1455 1451 1449 1446 1444 1442 1441 1439 1438 1437 1437 1436 1435 1434 1434 1433 1432 1432 1432 1431 1431 1431 1431 1431 1431 1432
1538 1533 1529 1524 1519 1515 1510 1505 1500 1495 1490 1485 1480 1474 1468 1463 1458 1453 1448 1445 1442 1439 1437 1436 1435 1434 1433 1433 1433 1432 1432 1432 1432 1432 1432 1432 1431 1431 1431 1431 1431 1431 1432
1538 1534 1529 1524 1519 1515 1510 1505 1500 1496 1491 1486 1480 1475 1469 1463 1457 1452 1446 1442 1438 1434 1432 1431 1429 1429 1428 1428 1428 1428 1429 1429 1430 1430 1430 1430 1430 1430 1430 1430 1430 1430 1431
1538 1534 1530 1525 1520 1515 1510 1505 1501 1496 1491 1486 1481 1475 1470 1464 1458 1451 1446 1440 1435 1430 1427 1425 1423 1422 1422 1422 1422 1423 1424 1425 1426 1427 1428 1428 1428 1428 1428 1428 1428 1429 1429